Regional Weather Roundup
Issued by NWS

Home | Current Version | Previous Version | Graphics & Text | Print | Product List | Glossary On
Versions: 1 2 3 4 5 6 7 8 9 10 11 12 13 14 15 16 17 18 19 20 21 22 23 24 25 26 27 28 29 30 31 32 33 34 35 36 37 38 39 40 41 42 43 44 45 46 47 48 49 50
587
ASUS43 KMKX 210600
RWRWI

WISCONSIN REGIONAL WEATHER ROUNDUP
NATIONAL WEATHER SERVICE MILWAUKEE/SULLIVAN WI
100 AM CDT MON MAY 21 2018

NOTE: "FAIR" INDICATES FEW OR NO CLOUDS BELOW 12,000 FEET WITH NO
SIGNIFICANT WEATHER AND/OR OBSTRUCTIONS TO VISIBILITY.

WIZ001-002-006>008-014>016-023>028-210700-
NORTHWEST WISCONSIN

CITY           SKY/WX    TMP DP  RH WIND       PRES   REMARKS
SUPERIOR ARPT  FAIR      36  36  98 CALM      30.17S
6HR MIN TEMP:  35; 6HR MAX TEMP:  68;

ASHLAND        FAIR      37  35  92 CALM      30.19S
6HR MIN TEMP:  36; 6HR MAX TEMP:  66;

HAYWARD        FAIR      39  35  86 CALM      30.18S
6HR MIN TEMP:  39; 6HR MAX TEMP:  70;

SIREN          FAIR      42  35  77 CALM      30.17R
CUMBERLAND     FAIR      46  34  61 CALM      30.17S
RICE LAKE      FAIR      44  39  82 CALM      30.19R
6HR MIN TEMP:  44; 6HR MAX TEMP:  71;

CHETEK         FAIR      45  39  81 CALM      30.18R
LADYSMITH      FAIR      43  37  78 CALM      30.20S
6HR MIN TEMP:  42; 6HR MAX TEMP:  70;

EAU CLAIRE     NOT AVBL
MENOMONIE      FAIR      53  41  64 CALM      30.18R
NEW RICHMOND   FAIR      51  35  55 SE3       30.16S
OSCEOLA        FAIR      45  37  72 CALM      30.19R HAZE
$$

WIZ003>005-009-010-017-018-210700-
NORTH CENTRAL WISCONSIN

CITY           SKY/WX    TMP DP  RH WIND       PRES   REMARKS
MANITOWISH WTR FAIR      37  37 100 CALM      30.21R
ARBOR VITAE    FAIR      52  38  58 S3        30.22R
WOODRUFF       FAIR      52  38  58 S3        30.22R
RHINELANDER    FAIR      41  34  76 CALM      30.22S
6HR MIN TEMP:  41; 6HR MAX TEMP:  69;

EAGLE RIVER    FAIR      39  32  76 CALM      30.22S
LAND O LAKES   FAIR      38  37  94 CALM      30.24R
PHILLIPS       FAIR      37  35  93 CALM      30.20S
6HR MIN TEMP:  37; 6HR MAX TEMP:  69;

TOMAHAWK       FAIR      42  34  74 CALM      30.22R
MEDFORD        FAIR      48  34  57 SE3       30.20S
MERRILL        FAIR      38  36  89 CALM      30.22S
6HR MIN TEMP:  38; 6HR MAX TEMP:  68;

$$

WIZ029-030-035-036-043>047-210700-
CENTRAL WISCONSIN

CITY           SKY/WX    TMP DP  RH WIND       PRES   REMARKS
WAUSAU         FAIR      47  36  65 E5        30.20S
6HR MIN TEMP:  47; 6HR MAX TEMP:  68;

MOSINEE        FAIR      45  32  61 E5        30.23R
MARSHFIELD     FAIR      48  34  58 E6        30.19S
6HR MIN TEMP:  48; 6HR MAX TEMP:  67;

STEVENS POINT  NOT AVBL
WAUPACA        FAIR      45  39  80 N3        30.21F
6HR MIN TEMP:  44; 6HR MAX TEMP:  65;

WAUTOMA        FAIR      44  41  89 CALM      30.20F
6HR MIN TEMP:  44; 6HR MAX TEMP:  63;

WISC RAPIDS    FAIR      49  33  54 E5        30.20F
6HR MIN TEMP:  49; 6HR MAX TEMP:  67;

CAMP DOUGLAS   FAIR      48  46  94 E5        30.17F
6HR MIN TEMP:  47; 6HR MAX TEMP:  61;

$$

WIZ011>013-019>022-031-037>040-048>050-210700-
NORTHEAST WISCONSIN

CITY           SKY/WX    TMP DP  RH WIND       PRES   REMARKS
ANTIGO         FAIR      40  32  73 CALM      30.22S
6HR MIN TEMP:  40; 6HR MAX TEMP:  64;

SHAWANO        FAIR      43  38  83 CALM      30.22S
OCONTO         FAIR      37  35  95 CALM      30.22S
STURGEON BAY   FAIR      41  33  73 E3        30.23S
6HR MIN TEMP:  41; 6HR MAX TEMP:  57;

GREEN BAY      FAIR      43  36  76 CALM      30.22S
6HR MIN TEMP:  42; 6HR MAX TEMP:  61;

MANITOWOC      FAIR      39  35  86 CALM      30.23R
6HR MIN TEMP:  39; 6HR MAX TEMP:  54;

APPLETON       FAIR      50  23  34 CALM      30.21S
CLINTONVILLE   FAIR      42  35  75 CALM      30.22S
OSHKOSH        FAIR      47  33  58 CALM      30.19F
6HR MIN TEMP:  45; 6HR MAX TEMP:  62;

$$

WIZ032>034-041-042-053>061-210700-
SOUTHWEST WISCONSIN

CITY           SKY/WX    TMP DP  RH WIND       PRES   REMARKS
LA CROSSE      CLOUDY    57  50  77 SE6       30.16S
6HR MIN TEMP:  56; 6HR MAX TEMP:  63;

SPARTA         CLOUDY    49  47  95 CALM      30.18S
VIROQUA        FAIR      52  49  91 E6        30.17S
BOSCOBEL       CLOUDY    55  53  93 CALM      30.17S
6HR MIN TEMP:  53; 6HR MAX TEMP:  60;

PRAIRIE DU CHI CLOUDY    57  51  80 E6        30.15S
PLATTEVILLE    MOCLDY    54  50  87 E7        30.16F
$$

WIZ056-057-062-063-064-067-068-210700-
SOUTH CENTRAL WISCONSIN

CITY           SKY/WX    TMP DP  RH WIND       PRES   REMARKS
REEDSBURG      FAIR      52  50  93 CALM      30.18S
BARABOO/DELLS  FAIR      51  45  79 E3        30.19R
LONE ROCK      NOT AVBL
MINERAL POINT  FAIR      54  52  94 E5        30.17S
MADISON        FAIR      50  44  80 SE3       30.17F
6HR MIN TEMP:  50; 6HR MAX TEMP:  60;

MIDDLETON      MOCLDY    53  44  69 E5        30.19S
WATERTOWN      FAIR      46  46 100 CALM      30.19S
6HR MIN TEMP:  46; 6HR MAX TEMP:  58;

MONROE         FAIR      50  43  76 NE7       30.16F
JANESVILLE     FAIR      50  43  76 E6        30.18F
$$

WIZ051-052-058>065-066-070>072-210700-
SOUTHEAST WISCONSIN

CITY           SKY/WX    TMP DP  RH WIND       PRES   REMARKS
MILWAUKEE      MOCLDY    45  39  79 CALM      30.20F
6HR MIN TEMP:  43; 6HR MAX TEMP:  49;

WAUKESHA       FAIR      41  36  81 CALM      30.20F
MILWAUKEE/TIMM FAIR      41  36  81 CALM      30.21F
RACINE         FAIR      44  40  85 N6        30.20F
6HR MIN TEMP:  42; 6HR MAX TEMP:  47;

BURLINGTON     FAIR      45  40  82 CALM      30.19F
KENOSHA        FAIR      44  40  85 NE6       30.18F
6HR MIN TEMP:  43; 6HR MAX TEMP:  50;

FOND DU LAC    FAIR      43  39  86 CALM      30.20F
6HR MIN TEMP:  43; 6HR MAX TEMP:  60;

SHEBOYGAN      FAIR      40  37  89 CALM      30.21F
6HR MIN TEMP:  39; 6HR MAX TEMP:  51;

WEST BEND      FAIR      43  37  81 CALM      30.20F
JUNEAU         FAIR      47  31  53 NE5       30.20F
$$

LSZ147-162-210700-
LAKE SUPERIOR

STATION/POSITION TIME  TEMP    WIND        PRES    WAVE
                       AIR SEA DIR/SP/G            HT/PER
                 (UTC) (F)     (DEG/KT/KT) (MB)    (FT/S)
W MID LAKE BUOY  0450   40 36  200/  2/  4 1022.4R   0
DEVILS ISLAND    0500   54      CALM  /  2 1022.3R
SAXON HARBOR     0530   43     200/  2/  2 1021.3S
$$

LMZ867-665-643>646-210700-
LAKE MICHIGAN

STATION/POSITION TIME  TEMP    WIND        PRES    WAVE
                       AIR SEA DIR/SP/G            HT/PER
                 (UTC) (F)     (DEG/KT/KT) (MB)    (FT/S)
NORTHPORT PIER   0540   42                 1023.4S
KEWAUNEE LAKESHO 0524   42     320/  3/  4 1022.7
SHEBOYGAN LAKESH 0500   47     340/  3/  4 1023.5S
PORT WASHINGTON  0540   47     330/  3/  5 1023.7F
MILWAUKEE LAKESH 0530   46      20/  2/  2   N/A
KENOSHA   LAKESH 0500   46                 1022.7
$$

TC  - TEMPERATURE IN CELSIUS
VSB - VISIBILITY IN STATUTE MILES
WCI - WIND CHILL INDEX
HX  - HEAT INDEX





USA.gov is the U.S. government's official web portal to all federal, state and local government web resources and services.